Orbital Elements
Epoch 2004 Mar. 16.0 TT = JDT 2453080.5
T 2004 Mar. 17.85329 TT Muraoka
q 1.5786326 (2000.0) P Q
n 0.15271487 Peri. 187.27543 +0.14602249 -0.94064411
a 3.4664252 Node 254.69428 +0.92289814 +0.24106088
e 0.5445935 Incl. 18.52039 +0.35628144 -0.23891069
P 6.45
From 263 observations 1984-1998, mean residual 0".75. Nongravitational
parameters A1 = +0.32 +/- 0.02, A2 = -0.0374 +/- 0.0005.
|